This demonstration page uses our WeatherBlox Daily Observations layout. Learn more.

36.17497, -115.13722

Hourly Observations for April 23, 2015

Temp ( °F °C ) Dew Point ( °F °C ) Humidity (%) Winds ( mph kmh ) Pressure ( in mb ) Visibility ( mi km ) Precip ( " mm )
12:53 am 00:53 Clear 65 18.3 29 -1.7 26 26 NNE 5 7 29.77 1008 10 16.0934 0 0
1:53 am 01:53 Clear 63 17.2 30 -1.1 29 29 WSW 6 9 29.76 1008 10 16.0934 0 0
2:53 am 02:53 Clear 62 16.7 31 -0.6 31 31 W 6 9 29.77 1008 10 16.0934 0 0
3:53 am 03:53 Clear 62 16.7 28 -2.2 28 28 NNW 8 13 29.76 1008 10 16.0934 0 0
4:53 am 04:53 Clear 61 16.1 28 -2.2 29 29 NNW 12 19 29.77 1008 10 16.0934 0 0
5:53 am 05:53 Cloudy 62 16.7 28 -2.2 28 28 NNW 7 11 29.78 1009 10 16.0934 0 0
6:53 am 06:53 Sunny 61 16.1 28 -2.2 29 29 WNW 9 15 29.8 1009 10 16.0934 0 0
7:53 am 07:53 Mostly Sunny 65 18.3 29 -1.7 26 26 N 6 9 29.81 1009 10 16.0934 0 0
8:53 am 08:53 Sunny 68 20 29 -1.7 23 23 ESE 5 7 29.82 1010 10 16.0934 0 0
9:53 am 09:53 Sunny 69 20.6 28 -2.2 22 22 ESE 6 9 29.82 1010 10 16.0934 0 0
10:53 am 10:53 Sunny 72 22.2 30 -1.1 21 21 SSE 13 20 29.81 1010 10 16.0934 0 0
11:53 am 11:53 Sunny 75 23.9 28 -2.2 18 18 S 13 20 29.79 1009 10 16.0934 0 0
12:53 pm 12:53 Sunny 76 24.4 30 -1.1 18 18 SSE 15 24 29.77 1008 10 16.0934 0 0
1:53 pm 13:53 Sunny 75 23.9 28 -2.2 18 18 SSE 18 30 29.77 1008 10 16.0934 0 0
2:53 pm 14:53 Sunny 77 25 25 -3.9 14 14 S 15 24 29.75 1007 10 16.0934 0 0
3:53 pm 15:53 Mostly Sunny 76 24.4 30 -1.1 18 18 SW 21 33 29.73 1007 10 16.0934 0 0
4:53 pm 16:53 Sunny 75 23.9 29 -1.7 18 18 SW 15 24 29.73 1007 10 16.0934 0 0
5:53 pm 17:53 Sunny 74 23.3 28 -2.2 18 18 SW 9 15 29.72 1007 10 16.0934 0 0
6:53 pm 18:53 Mostly Cloudy 72 22.2 32 0 23 23 S 20 31 29.73 1007 10 16.0934 0 0
7:53 pm 19:53 Clear 69 20.6 33 0.6 26 26 S 17 28 29.75 1007 10 16.0934 0 0
8:53 pm 20:53 Clear 68 20 35 1.7 30 30 SSW 15 24 29.76 1008 10 16.0934 0 0
9:53 pm 21:53 Clear 67 19.4 36 2.2 32 32 SSW 12 19 29.77 1008 10 16.0934 0 0
10:53 pm 22:53 Clear 66 18.9 36 2.2 33 33 SSW 9 15 29.76 1008 10 16.0934 0 0
11:53 pm 23:53 Clear 61 16.1 35 1.7 38 38 SW 5 7 29.76 1008 10 16.0934 0 0

Powered by AerisWeather